FREGAT DEB, 45872

Orbit data source: Space-Track

FREGAT DEB, 45872 is space debris in LEO originally from a launch on Mon, 18 Jul 2011 UTC launched from the Tyuratam Missile And Space Complex (TTMTR). Debris objects in space refer to the collection of defunct objects orbiting the Earth. Examples of debris include non-operational satellites, rocket bodies, and fragments generated from explosions, collisions, or faulty payload assembly.

Loading next visibility...
Identifier
45872, 2011-037CW
Orbit
LEO
Country
Flag of CISCIS
Related business
Manufacturer
Lavochkin
Mission
Spacecraft
Bus & Motor
Unknown
Mass
Unknown
Launch date (UTC)
2011-07-18 (14 years ago)
Launch vehicle
Unknown
Launch site
Tyuratam Missile And Space Complex (TTMTR)
Object type
Payload
Rocket body
Debris
Shape & HBR
Unknown shape, 0.1 m
Radar Cross Section
Small (<0.1 m²)

Expand to show TLE details & history
Last TLE update: 17 hours ago

TLE from 17 hours ago
0 FREGAT DEB
1 45872U 11037CW  25305.56971899  .00010238  00000-0  75730-1 0  9994
2 45872  51.3166 162.2821 1489270 334.5838  18.8369 10.68330613208182
Epoch: 2025-11-01T13:40Z
TLE epoch observation values (Epoch: 2025-11-01T13:40:23.720Z)
Latitude
-0.00005°
Longitude
-83.91469°
Altitude
1,128.655 km
Speed
7.775 km/s
True Right ascension
10h 49m 07s
True Declination
0° 00' 00"
Sunlit
Object was in daylight at epoch
Visualization orbit readout
Latitude
Unknown
Longitude
Unknown
Altitude
Unknown
Speed
Unknown
Apparent Right ascension
Unknown
Apparent Declination
Unknown
Sunlit
N/A
Visualization observer readout
Local Sidereal Time
02:37:34
Azimuth
Unknown
Elevation
Unknown
Doppler factor
Unknown
Orbital elements
Apogee altitude
3,627.541 km
Perigee altitude
1,033.615 km
Semi-major axis
8,708.715 km
Eccentricity
0.14893
Inclination
51.3166°
RAAN
162.2821°
Arg. of periapsis
334.5838°
True anomaly
25.4976°
Mean anomaly
18.8369°
Eccentric anomaly
22.03872°
Mean motion
2.67062 °/min
Orbital period
134.8 mins
BSTAR
0.07573
Loading maneuver chart data...
Computing Atmospheric mass density...
Loading historical data...
Loading historical data...
Loading historical data...
Loading historical data...
Loading historical data...
Loading historical data...
Loading historical data...

Documentation

Showing up to 5 results
|